User: anonymous   Login
Location: Unspecified
(0.0000°N, 0.0000°E)
Time: 17:14:58
(UTC+00:00)
Language:

SOHLA-1 (MAIDO-1) - Orbit

View from above orbital plane
View from above orbital plane
View from above satellite
View from above satellite

Ground track
Ground track

The orbit data is extracted from the following two-line orbital elements,

1 33496U 09002E   24166.65647762  .00000808  00000-0  13302-3 0  9996
2 33496  98.2090  54.4564 0005795 181.5096 178.6095 14.73303124826054
Epoch (UTC): 14 June 2024 15:45:19
Eccentricity: 0.0005795
inclination: 98.2090°
perigee height: 646 km
apogee height: 654 km
right ascension of ascending node: 54.4564°
argument of perigee: 181.5096°
revolutions per day: 14.73303124
mean anomaly at epoch: 178.6095°
orbit number at epoch: 82605

The dashed part of the orbit path shows where the satellite is in the earth's shadow,  

DLR